Location: Dal�� Lhota
(48.7500°N, 14.0167°E)
Time: 02:36:03
(UTC+00:00)

Terra - Pass Details

Date: 24 September 2020
Orbit: 701 x 703 km, 98.2° (Epoch: 29 October)

Event Time Altitude Azimuth Distance (km) Brightness Sun altitude
Exits shadow 21:21:29 19° 334° (NNW) 1,634 4.2 -38.0°
Drops below altitude 10° 21:22:55 10° 339° (NNW) 2,183 5.1 -38.2°
Sets 21:25:13 0° 343° (NNW) 3,106 6.0 -38.4°
